| time (UTC) | temp C | wind direction | speed KPH | gust KPH | rain 1hr cm | rain 24hr cm | rain mn cm | humidity % | barometer mb |
| 20260506044943 | -17 | 0.0 | 0.0 | 0.00 | 0.00 | 0.00 | |||
| 20260506042535 | -17 | 0 | 0.0 | 0.0 | 0.00 | 0.00 | 0.00 | ||
| 20260506032202 | -17 | 0 | 0.0 | 0.0 | 0.00 | 0.00 | 0.00 | ||
| 20260506013751 | -17 | 248 | 3.2 | 3.2 | 0.00 | 0.00 | 0.00 | ||
| 20260506011855 | 26 | 143 | 4.8 | 6.4 | 0.00 | 0.00 | 0.00 | 82 | 1005.0 |
| 20260506005233 | -17 | 167 | 3.2 | 3.2 | 0.00 | 0.00 | 0.00 | ||
| 20260506002924 | 26 | 186 | 6.4 | 8.0 | 0.00 | 0.00 | 0.00 | 80 | 1004.7 |
| 20260505224004 | -17 | 264 | 1.6 | 1.6 | 0.00 | 0.00 | 0.00 | ||
| 20260505203502 | -17 | 168 | 3.2 | 0.0 | 0.00 | 0.00 | 0.00 | ||
| 20260505202757 | 28 | 256 | 3.2 | 8.0 | 0.00 | 0.00 | 0.00 | 76 | 1006.0 |
| 20260505202155 | -17 | 264 | 3.2 | 3.2 | 0.00 | 0.00 | 0.00 | ||
| 20260505192142 | -17 | 168 | 4.8 | 4.8 | 0.00 | 0.00 | 0.00 | ||
| 20260505172511 | -17 | 0.0 | 0.0 | 0.00 | 0.00 | 0.00 | |||
| 20260505153139 | -17 | 242 | 0.0 | 0.0 | 0.00 | 0.00 | 0.00 | ||
| 20260505110740 | -17 | 240 | 0.0 | 0.0 | 0.00 | 0.00 | 0.00 | ||
| 20260505092638 | -17 | 207 | 1.6 | 1.6 | 0.00 | 0.00 | 0.00 | ||
| 20260505075715 | -17 | 209 | 0.0 | 3.2 | 0.00 | 0.00 | 0.00 | ||
| 20260505075214 | -17 | 0 | 0.0 | 0.0 | 0.00 | 0.00 | 0.00 | ||
| 20260505065757 | -17 | 155 | 4.8 | 4.8 | 0.00 | 0.00 | 0.00 | ||
| 20260505064838 | -17 | 232 | 0.0 | 0.0 | 0.00 | 0.00 | 0.00 |